This demonstration page uses our WeatherBlox Daily Observations layout. Learn more.

Left ArrowRight Arrow

39.95238, -75.16362

Hourly Observations for September 16, 2019

Temp ( °F °C ) Dew Point ( °F °C ) Humidity (%) Winds ( mph kmh ) Pressure ( in mb ) Visibility ( mi km ) Precip ( " mm )
12:54 am 00:54 Mostly Cloudy 69 20.6 62 16.7 78 78 S 5 7 30.08 1019 10 16 0.00 0.00
1:54 am 01:54 Mostly Cloudy 70 21.1 61 16.1 73 73 WSW 3 6 30.09 1019 10 16 0.00 0.00
2:54 am 02:54 Partly Cloudy 68 20 60 15.6 76 76 SW 3 6 30.07 1018 10 16 0.00 0.00
3:54 am 03:54 Partly Cloudy 68 20 59 15 73 73 WSW 5 7 30.07 1018 10 16 0.00 0.00
4:54 am 04:54 Mostly Cloudy 68 20 61 16.1 78 78 SW 3 6 30.07 1018 10 16 0.00 0.00
5:54 am 05:54 Mostly Cloudy 68 20 61 16.1 78 78 Calm 30.06 1018 10 16 0.00 0.00
6:54 am 06:54 Partly Cloudy 68 20 58 14.4 70 70 NNW 5 7 30.08 1019 10 16 0.00 0.00
7:54 am 07:54 Partly Cloudy 70 21.1 58 14.4 66 66 Calm 30.08 1019 10 16 0.00 0.00
8:54 am 08:54 Mostly Cloudy 74 23.3 58 14.4 57 57 Calm 30.08 1019 10 16 0.00 0.00
9:54 am 09:54 Partly Cloudy 79 26.1 59 15 50 50 ESE 5 7 30.08 1019 10 16 0.00 0.00
10:54 am 10:54 Partly Cloudy 81 27.2 56 13.3 42 42 NNE 3 6 30.06 1018 10 16 0.00 0.00
11:54 am 11:54 Mostly Cloudy 80 26.7 56 13.3 44 44 SSE 3 6 30.05 1018 10 16 0.00 0.00
12:54 pm 12:54 Mostly Cloudy 81 27.2 55 12.8 41 41 VRB 5 7 30.04 1017 10 16 0.00 0.00
1:54 pm 13:54 Mostly Cloudy 82 27.8 55 12.8 40 40 SSW 3 6 30.01 1016 10 16 0.00 0.00
2:54 pm 14:54 Mostly Cloudy 83 28.3 55 12.8 38 38 Calm 30.00 1016 10 16 0.00 0.00
3:54 pm 15:54 Cloudy 82 27.8 54 12.2 38 38 S 6 9 29.98 1015 10 16 0.00 0.00
4:54 pm 16:54 Cloudy 82 27.8 57 13.9 42 42 SSE 5 7 29.97 1015 10 16 0.00 0.00
5:54 pm 17:54 Cloudy 82 27.8 56 13.3 41 41 WNW 5 7 29.97 1015 10 16 0.00 0.00
6:54 pm 18:54 Cloudy 81 27.2 58 14.4 45 45 NNE 8 13 29.98 1015 10 16 0.00 0.00
7:54 pm 19:54 Cloudy 78 25.6 63 17.2 60 60 E 6 9 29.99 1016 10 16 0.00 0.00
8:54 pm 20:54 Mostly Cloudy 74 23.3 63 17.2 69 69 ENE 12 19 30.01 1016 10 16 0.00 0.00
9:54 pm 21:54 Cloudy 73 22.8 63 17.2 71 71 E 9 15 30.02 1017 10 16 0.00 0.00
10:54 pm 22:54 Mostly Cloudy 71 21.7 64 17.8 79 79 E 9 15 30.04 1017 10 16 0.00 0.00
11:54 pm 23:54 Cloudy 69 20.6 64 17.8 84 84 ENE 5 7 30.04 1017 10 16 0.00 0.00

Powered by AerisWeather